Miscellaneous Local Product
Issued by NWS North Platte, NE

Home | Current Version | Previous Version | Graphics & Text | Print | Product List | Glossary On
Versions: 1 2 3 4 5 6 7 8 9 10 11 12 13 14 15 16 17 18 19 20 21 22 23 24 25 26 27 28 29 30 31 32 33 34 35 36 37 38 39 40 41 42 43 44 45 46 47 48 49 50
000
AXUS43 KLBF 280410
MISLBF


WESTERN AND NORTH CENTRAL NEBRASKA HOURLY WEATHER ROUNDUP
NATIONAL WEATHER SERVICE NORTH PLATTE NE
1100 PM CDT MON MAR 27 2017

NOTE: "FAIR" INDICATES FEW OR NO CLOUDS BELOW 12,000 FEET WITH NO
SIGNIFICANT WEATHER AND/OR OBSTRUCTIONS TO VISIBILITY.

NOTE: STATIONS NOT REPORTING VARIABLES SUCH AS SKY/WEATHER OR
PRESSURE ARE PROVIDED BY RAWS AND APRS NETWORKS AND ARE NOT UNDER
NATIONAL WEATHER SERVICE QUALITY CONTROL.

...OBSERVATIONS IN AND NEAR THE EASTERN PANHANDLE OF NEBRASKA...

CITY           SKY/WX    TMP DP  RH WIND       PRES   REMARKS
PINE RIDGE     CLOUDY    45  38  76 NE10      29.88R
CHADRON        MOCLDY    46  37  71 N7        29.87R
ALLIANCE       CLOUDY    53  36  52 N9        29.86R
SIDNEY         CLOUDY    52  34  50 S16       29.86R
CRESCENT LAKE    N/A     49  36  60 SE7         N/A
$$

...OBSERVATIONS IN NORTHERN NEBRASKA AND FAR SOUTHERN SOUTH DAKOTA...

CITY           SKY/WX    TMP DP  RH WIND       PRES   REMARKS
WINNER         CLOUDY    53  37  54 SE13      29.94R
VALENTINE      CLEAR     51  40  65 SE13      29.93R
THEDFORD       CLEAR     48  43  82 SE9       29.93R
AINSWORTH      CLOUDY    49  42  78 S8        29.94R
O`NEILL        CLOUDY    49  39  68 SE7       29.97R
ORD            PTCLDY    47  40  76 SE9       29.96R
BROKEN BOW     MOCLDY    46  41  82 SE9       29.95R
VALENTINE NWR    N/A     48  41  77 SE8         N/A
HALSEY           N/A     47  41  80 SE6         N/A
BUTTE            N/A     48  40  73 E8          N/A
CHAMBERS         N/A     47  39  75 CALM        N/A
EWING            N/A     44  40  85 CALM        N/A
$$

...OBSERVATIONS IN SOUTHWEST NEBRASKA AND FAR NORTHEAST COLORADO...

CITY           SKY/WX    TMP DP  RH WIND       PRES   REMARKS
HOLYOKE        FAIR      54  37  54 SE17      29.89R
IMPERIAL       MOCLDY    51  42  71 SE17      29.89R
OGALLALA       CLEAR     51  42  72 SE15      29.88S
NORTH PLATTE   CLEAR     46  40  79 E9        29.92R
MCCOOK         CLEAR     48  40  73 SE13      29.93R
LEXINGTON      CLOUDY    45  41  86 SE9       29.96R
STAPLETON        N/A     45  40  84 CALM        N/A
GOTHENBURG       N/A     49  42  76 SE8         N/A
CALLAWAY         N/A     47  43  85 SE10        N/A
$$

...OBSERVATIONS IN CENTRAL LINCOLN COUNTY AREA...

CITY           SKY/WX    TMP DP  RH WIND       PRES   REMARKS
N.P. AIRPORT   CLEAR     46  40  79 E9        29.92R
N.P. DOWNTOWN    N/A     50  42  72 E3          N/A
N.P. SOUTHEAST   N/A     48  40  74 E3          N/A
N.P. HILLCREST   N/A     48  41  78 SE12        N/A
$$

...SOME OBSERVATIONS FROM AROUND THE REGION...

CITY           SKY/WX    TMP DP  RH WIND       PRES   REMARKS
DENVER         CLOUDY    50  39  66 S3        29.82S
LIMON          CLOUDY    47  37  68 SE16      29.86S
ASPEN          CLOUDY    38  29  70 S5        29.85S WCI  34
LARAMIE        CLOUDY    35  34  96 CALM      29.89R
CASPER         CLOUDY    47  30  51 E10       29.85R
CHEYENNE       CLOUDY    43  39  86 N8        29.87R
SCOTTSBLUFF    CLOUDY    55  37  50 NE7       29.85R
GRAND ISLAND   CLOUDY    41  40  96 S7        29.98S
OMAHA          CLOUDY    45  37  73 E3        30.02R
SIOUX FALLS    PTCLDY    46  39  76 S8        30.01R
PIERRE         CLEAR     42  32  67 E6        29.96R
RAPID CITY     PTCLDY    47  35  63 E12       29.93R
BISMARCK       CLEAR     43  35  73 NE7       30.00R
KANSAS CITY    CLOUDY    50  46  86 N3        30.00R
HILL CITY      CLEAR     44  41  89 E6        29.97R
WICHITA        CLOUDY    52  46  80 SE8       29.99R
DODGE CITY     CLEAR     47  41  80 SE9       29.94R
OKLAHOMA CITY  CLEAR     56  47  71 NE13      29.93S
DALLAS         PTCLDY    64  55  72 E7        29.88S
AMARILLO       CLEAR     52  39  61 SE14      29.89R
$$




USA.gov is the U.S. government's official web portal to all federal, state and local government web resources and services.